Location: Nashville
(36.1660°N, 86.7840°W)
Time: 04:10:09
(UTC-05:00)

Tiros 1 - Pass Details

Date: 02 February 2022
Orbit: 630 x 663 km, 48.4° (Epoch: 29 May)

Event Time Altitude Azimuth Distance (km) Brightness Sun altitude
Rises 18:32:59 0° 230° (SW) 2,964 11.6 -16.0°
Reaches altitude 10° 18:35:19 10° 229° (SW) 2,060 10.6 -16.5°
Maximum altitude 18:40:05 82° 143° (SE) 670 7.1 -17.5°
Enters shadow 18:42:17 32° 58° (ENE) 1,124 7.9 -17.9°
